OK1CMJ-5 Weather Reports


Display with metric or nautical units.
time (UTC)temp
F
wind
direction
speed
MPH
gust
MPH
rain 1hr
in
rain 24hr
in
rain mn
in
humidity
%
barometer
mb
20260507115536 61 307 2.0 4.0 0.00 0.19 0.01 29 1014.1
20260507114636 60 301 1.0 7.0 0.00 0.19 0.01 31 1014.2
20260507113736 60 307 1.0 7.0 0.00 0.19 0.01 29 1014.3
20260507112836 61 332 2.0 5.0 0.00 0.19 0.01 30 1014.2
20260507111936 60 209 2.0 5.0 0.00 0.19 0.01 28 1014.2
20260507111036 60 316 1.0 4.0 0.00 0.19 0.01 30 1014.0
20260507110136 61 336 2.0 4.0 0.00 0.19 0.01 28 1014.1
20260507104336 59 309 1.0 8.0 0.00 0.19 0.01 31 1014.0
20260507103436 60 313 2.0 8.0 0.00 0.19 0.01 28 1014.0
20260507102536 62 302 1.0 7.0 0.00 0.19 0.01 25 1014.0
20260507101636 62 299 2.0 5.0 0.00 0.19 0.01 27 1013.9
20260507100736 63 314 2.0 7.0 0.00 0.19 0.01 25 1013.9
20260507095836 63 271 2.0 8.0 0.00 0.19 0.01 25 1013.8
20260507094936 64 288 3.0 8.0 0.00 0.19 0.01 24 1013.7
20260507094036 62 330 2.0 6.0 0.00 0.19 0.01 27 1013.6
20260507092236 62 329 1.0 8.0 0.00 0.19 0.01 29 1013.5
20260507091336 60 302 1.0 8.0 0.00 0.19 0.01 32 1013.4
20260507090436 60 308 2.0 4.0 0.00 0.19 0.01 30 1013.6
20260507084636 61 319 2.0 14.0 0.00 0.19 0.01 30 1013.3
20260507083736 62 315 3.0 14.0 0.00 0.19 0.01 26 1013.4
20260507082836 63 303 5.0 10.0 0.00 0.19 0.01 25 1013.3
20260507081036 60 330 2.0 8.0 0.00 0.19 0.01 39 1013.1
20260507080136 57 306 2.0 5.0 0.00 0.19 0.01 43 1013.1
20260507075236 57 303 2.0 5.0 0.00 0.19 0.01 44 1013.0
20260507073436 57 320 1.0 4.0 0.00 0.19 0.01 46 1013.1
20260507072536 57 315 1.0 4.0 0.00 0.19 0.01 45 1012.9
20260507071636 57 304 1.0 4.0 0.00 0.19 0.01 46 1012.9
20260507070736 56 292 1.0 3.0 0.00 0.19 0.01 46 1013.0
20260507065836 57 333 1.0 6.0 0.00 0.19 0.01 44 1012.8
20260507064936 59 347 1.0 4.0 0.00 0.19 0.01 43 1012.6
20260507063136 60 305 2.0 7.0 0.00 0.19 0.01 42 1012.4
20260507062236 60 334 0.0 5.0 0.00 0.19 0.01 42 1012.5
20260507061336 62 314 1.0 6.0 0.00 0.19 0.01 41 1012.3
20260507060436 62 328 2.0 4.0 0.00 0.19 0.01 46 1012.2
20260507055536 61 316 1.0 9.0 0.00 0.19 0.01 48 1012.1
20260507054636 60 343 2.0 6.0 0.00 0.19 0.01 52 1012.0
20260507053736 59 281 0.0 5.0 0.00 0.19 0.01 58 1011.7
20260507052836 58 307 0.0 5.0 0.00 0.19 0.01 64 1011.7
20260507051936 58 269 1.0 5.0 0.00 0.19 0.01 71 1011.6
20260507051036 57 286 1.0 4.0 0.00 0.19 0.01 87 1011.6
20260507050136 56 315 2.0 4.0 0.00 0.19 0.01 99 1011.7
20260507045236 55 314 2.0 4.0 0.00 0.19 0.01 99 1011.4
20260507044336 53 334 0.0 7.0 0.00 0.19 0.01 99 1011.2
20260507043436 53 318 2.0 5.0 0.00 0.19 0.01 99 1011.2
20260507042536 52 295 2.0 4.0 0.00 0.19 0.01 99 1011.1
20260507041636 50 339 2.0 10.0 0.00 0.19 0.01 99 1011.0
20260507040736 50 72 2.0 5.0 0.01 0.19 0.01 99 1011.0
20260507034936 50 252 0.0 3.0 0.01 0.19 0.01 99 1010.8
20260507034036 50 292 1.0 9.0 0.01 0.19 0.01 99 1011.0
20260507033136 50 280 1.0 5.0 0.01 0.19 0.01 99 1010.7
20260507032235 50 289 1.0 4.0 0.01 0.19 0.01 99 1010.7
20260507031336 50 281 0.0 8.0 0.01 0.19 0.01 99 1010.9
20260507025536 49 329 0.0 4.0 0.00 0.18 0.00 99 1010.7
20260507024636 49 307 0.0 4.0 0.00 0.18 0.00 99 1010.7
20260507023736 49 300 0.0 4.0 0.00 0.18 0.00 99 1010.6
20260507022835 49 267 1.0 4.0 0.00 0.18 0.00 99 1010.6
20260507021935 49 206 1.0 3.0 0.00 0.18 0.00 99 1010.7
20260507020135 49 325 1.0 4.0 0.00 0.18 0.00 99 1010.3
20260507015236 49 335 1.0 4.0 0.00 0.18 0.00 99 1010.3
20260507014335 49 340 0.0 3.0 0.00 0.18 0.00 99 1010.3
20260507013435 49 321 1.0 6.0 0.00 0.18 0.00 99 1010.4
20260507012536 49 328 0.0 5.0 0.00 0.18 0.00 99 1010.3
20260507011636 49 296 0.0 3.0 0.00 0.18 0.00 99 1010.2
20260507010736 49 61 0.0 2.0 0.00 0.18 0.00 99 1010.2
20260507004935 49 314 0.0 2.0 0.00 0.18 0.00 99 1010.1
20260507003135 50 311 0.0 2.0 0.00 0.18 0.00 99 1009.8
20260507002235 50 313 0.0 2.0 0.00 0.18 0.00 99 1009.9
20260507000435 51 291 0.0 2.0 0.00 0.18 0.00 99 1010.0
20260506235536 51 292 0.0 2.0 0.00 0.18 0.00 99 1010.0
20260506234635 51 274 0.0 2.0 0.00 0.18 0.00 99 1009.9
20260506233735 51 292 0.0 2.0 0.00 0.18 0.00 99 1009.8
20260506232835 51 305 0.0 2.0 0.00 0.18 0.00 99 1009.6
20260506231935 51 299 0.0 2.0 0.00 0.18 0.00 99 1009.5
20260506231036 51 292 0.0 2.0 0.00 0.18 0.00 99 1009.2
20260506230135 51 314 0.0 3.0 0.00 0.18 0.00 97 1009.4
20260506225236 49 1 0.0 2.0 0.00 0.18 0.00 95 1009.4
20260506223436 49 0 0.0 0.0 0.00 0.18 0.00 92 1009.2
20260506222535 50 0 0.0 0.0 0.00 0.18 0.00 92 1009.2
20260506221636 50 0 0.0 0.0 0.00 0.18 0.00 91 1009.2
20260506215835 51 1 0.0 1.0 0.00 0.18 0.18 90 1009.1
20260506214935 51 1 0.0 1.0 0.00 0.18 0.18 89 1009.2
20260506214035 51 0 0.0 0.0 0.00 0.18 0.18 88 1009.2
20260506213135 52 338 0.0 1.0 0.00 0.18 0.18 88 1009.3
20260506212235 52 1 0.0 2.0 0.00 0.18 0.18 87 1009.2
20260506210435 52 347 0.0 1.0 0.00 0.18 0.18 84 1008.7
20260506205535 52 0 0.0 0.0 0.00 0.18 0.18 83 1008.6
20260506204635 52 0 0.0 0.0 0.01 0.18 0.18 82 1008.6
20260506203736 53 291 0.0 2.0 0.05 0.18 0.18 82 1008.4
20260506202836 53 250 0.0 2.0 0.07 0.18 0.18 81 1008.3
20260506201935 53 225 0.0 1.0 0.08 0.18 0.18 79 1008.2
20260506201036 53 225 0.0 1.0 0.11 0.18 0.18 78 1008.3
20260506195235 53 225 0.0 2.0 0.15 0.18 0.18 74 1008.2
20260506194335 53 303 0.0 2.0 0.14 0.17 0.17 73 1008.5
20260506193435 54 1 0.0 2.0 0.09 0.12 0.12 72 1008.6
20260506192535 54 312 0.0 5.0 0.08 0.11 0.11 71 1008.6
20260506190736 56 313 2.0 5.0 0.05 0.07 0.07 57 1008.6
20260506185835 57 334 1.0 4.0 0.01 0.04 0.04 46 1008.3
20260506184935 58 292 0.0 2.0 0.00 0.02 0.02 41 1007.6
20260506184035 58 292 0.0 2.0 0.00 0.04 0.02 39 1007.2
20260506183135 58 292 0.0 2.0 0.00 0.04 0.02 38 1006.8
20260506182235 58 292 0.0 2.0 0.00 0.12 0.02 39 1006.6
20260506181335 59 314 0.0 3.0 0.00 0.12 0.02 39 1006.6
20260506180435 59 314 1.0 3.0 0.00 0.12 0.02 39 1006.4
20260506174635 60 314 2.0 3.0 0.00 0.12 0.02 39 1006.2
20260506173735 61 319 2.0 4.0 0.00 0.12 0.02 38 1006.2
20260506172835 61 331 2.0 7.0 0.00 0.12 0.02 38 1006.1
20260506171935 62 331 2.0 6.0 0.00 0.12 0.02 38 1006.1
20260506171035 62 1 2.0 5.0 0.00 0.12 0.02 36 1006.2
20260506170135 64 345 2.0 4.0 0.00 0.12 0.02 31 1006.1
20260506165235 65 314 1.0 3.0 0.00 0.12 0.02 29 1005.9
20260506163435 67 11 2.0 4.0 0.00 0.12 0.02 25 1005.7
20260506162535 68 326 2.0 5.0 0.00 0.12 0.02 24 1005.9
20260506161635 69 332 2.0 5.0 0.00 0.12 0.02 25 1006.0
20260506160735 69 317 2.0 6.0 0.00 0.12 0.02 25 1006.0
20260506155836 68 336 3.0 6.0 0.00 0.12 0.02 23 1006.2
20260506154935 68 20 2.0 7.0 0.00 0.12 0.02 24 1006.1
20260506154035 68 337 3.0 6.0 0.00 0.12 0.02 25 1006.3
20260506153136 67 325 1.0 4.0 0.00 0.12 0.02 26 1006.6
20260506152235 65 314 1.0 4.0 0.00 0.12 0.02 30 1006.6
20260506151335 65 319 2.0 7.0 0.00 0.12 0.02 26 1006.6
20260506150435 66 317 4.0 8.0 0.00 0.12 0.02 23 1006.8
20260506145535 66 318 3.0 6.0 0.01 0.12 0.02 26 1006.8
20260506144635 66 315 3.0 6.0 0.01 0.12 0.02 24 1006.9
20260506143735 65 13 3.0 5.0 0.02 0.12 0.02 28 1007.0
20260506142835 65 25 1.0 5.0 0.02 0.12 0.02 34 1007.0
20260506141935 64 1 2.0 4.0 0.02 0.12 0.02 41 1007.4
20260506141035 63 45 2.0 3.0 0.02 0.12 0.02 45 1007.5
20260506140135 62 90 2.0 2.0 0.02 0.12 0.02 43 1007.6
20260506134335 63 90 0.0 2.0 0.01 0.11 0.01 30 1007.9
20260506133435 65 344 0.0 4.0 0.00 0.09 0.00 25 1007.7
20260506132535 66 350 1.0 2.0 0.00 0.09 0.00 23 1007.7
20260506131635 66 1 0.0 2.0 0.00 0.09 0.00 21 1007.6
20260506125835 68 90 0.0 4.0 0.00 0.09 0.00 19 1007.7
20260506124935 69 90 1.0 4.0 0.00 0.09 0.00 19 1007.8
20260506124035 70 129 2.0 4.0 0.00 0.09 0.00 17 1007.9
20260506122235 70 157 2.0 6.0 0.00 0.09 0.00 17 1008.1
20260506121335 71 130 2.0 4.0 0.00 0.09 0.00 14 1008.2
20260506120435 72 144 1.0 4.0 0.00 0.09 0.00 15 1008.2